Wetterdaten: Freitag, 25.10.2013
Datum Zeit Temperatur Luftfeuchte Luftdruck Regen Wind Richtung Richtung Taupunkt Windchill Windben
25.10.2013 00:00 5,5 C 93 % 1020,4 hPa 0,0 l/m 0,3 km/h (0 Bft) NO 45 4,5 C 5,9 C 0,0 km/h (0 Bft)
25.10.2013 00:05 5,5 C 93 % 1020,2 hPa 0,0 l/m 0,3 km/h (0 Bft) NO 45 4,5 C 5,9 C 0,0 km/h (0 Bft)
25.10.2013 00:10 5,5 C 93 % 1020,2 hPa 0,0 l/m 0,3 km/h (0 Bft) NO 45 4,5 C 5,6 C 0,0 km/h (0 Bft)
25.10.2013 00:15 5,6 C 93 % 1020,2 hPa 0,0 l/m 0,0 km/h (0 Bft) NO 45 4,6 C 5,6 C 0,0 km/h (0 Bft)
25.10.2013 00:20 5,4 C 93 % 1020,2 hPa 0,0 l/m 0,0 km/h (0 Bft) O 90 4,4 C 5,6 C 0,0 km/h (0 Bft)
25.10.2013 00:25 5,2 C 93 % 1020,4 hPa 0,0 l/m 0,0 km/h (0 Bft) NO 45 4,2 C 5,4 C 0,0 km/h (0 Bft)
25.10.2013 00:30 5,1 C 93 % 1020,4 hPa 0,0 l/m 0,0 km/h (0 Bft) NO 45 4,1 C 5,4 C 0,0 km/h (0 Bft)
25.10.2013 00:35 5,0 C 93 % 1020,4 hPa 0,0 l/m 0,0 km/h (0 Bft) NO 45 4,0 C 5,3 C 0,0 km/h (0 Bft)
25.10.2013 00:40 5,3 C 93 % 1020,4 hPa 0,0 l/m 0,0 km/h (0 Bft) NO 45 4,3 C 5,3 C 0,0 km/h (0 Bft)
25.10.2013 00:45 5,8 C 94 % 1020,2 hPa 0,0 l/m 0,0 km/h (0 Bft) N 360 4,9 C 5,5 C 2,4 km/h (1 Bft)
25.10.2013 00:50 5,5 C 94 % 1020,2 hPa 0,0 l/m 0,0 km/h (0 Bft) O-SO 112 4,6 C 5,6 C 0,0 km/h (0 Bft)
25.10.2013 00:55 5,6 C 94 % 1020,2 hPa 0,0 l/m 0,2 km/h (0 Bft) O-NO 67 4,7 C 5,6 C 0,0 km/h (0 Bft)
25.10.2013 01:00 5,6 C 94 % 1020,2 hPa 0,0 l/m 0,3 km/h (0 Bft) S-SO 157 4,7 C 5,7 C 0,0 km/h (0 Bft)
25.10.2013 01:05 5,4 C 94 % 1020,3 hPa 0,0 l/m 0,2 km/h (0 Bft) O-NO 67 4,5 C 5,7 C 0,0 km/h (0 Bft)
25.10.2013 01:10 5,4 C 94 % 1020,3 hPa 0,0 l/m 0,2 km/h (0 Bft) O-NO 67 4,5 C 5,6 C 0,0 km/h (0 Bft)
25.10.2013 01:15 4,7 C 94 % 1020,3 hPa 0,0 l/m 0,2 km/h (0 Bft) S 180 3,8 C 5,5 C 0,0 km/h (0 Bft)
25.10.2013 01:20 4,6 C 94 % 1020,3 hPa 0,0 l/m 0,3 km/h (0 Bft) NO 45 3,7 C 5,2 C 1,6 km/h (1 Bft)
25.10.2013 01:25 5,4 C 94 % 1020,2 hPa 0,0 l/m 0,6 km/h (0 Bft) O 90 4,5 C 5,0 C 3,2 km/h (1 Bft)
25.10.2013 01:30 5,6 C 94 % 1020,2 hPa 0,0 l/m 0,8 km/h (0 Bft) NO 45 4,7 C 5,4 C 0,0 km/h (0 Bft)
25.10.2013 01:35 6,2 C 93 % 1020,2 hPa 0,0 l/m 1,3 km/h (1 Bft) O 90 5,2 C 5,6 C 4,5 km/h (1 Bft)
25.10.2013 01:40 6,0 C 93 % 1020,2 hPa 0,0 l/m 1,1 km/h (1 Bft) NO 45 5,0 C 5,7 C 0,0 km/h (0 Bft)
25.10.2013 01:45 5,0 C 94 % 1020,0 hPa 0,0 l/m 0,5 km/h (0 Bft) O-NO 67 4,1 C 5,8 C 0,0 km/h (0 Bft)
25.10.2013 01:50 4,9 C 94 % 1020,0 hPa 0,0 l/m 0,2 km/h (0 Bft) N-NO 22 4,0 C 5,4 C 0,0 km/h (0 Bft)
25.10.2013 01:55 5,0 C 94 % 1020,0 hPa 0,0 l/m 0,5 km/h (0 Bft) S 180 4,1 C 5,2 C 2,9 km/h (1 Bft)
25.10.2013 02:00 5,6 C 94 % 1020,0 hPa 0,0 l/m 1,3 km/h (1 Bft) O 90 4,7 C 5,2 C 4,0 km/h (1 Bft)
25.10.2013 02:05 6,2 C 93 % 1019,9 hPa 0,0 l/m 2,6 km/h (1 Bft) SO 135 5,2 C 5,7 C 5,0 km/h (1 Bft)
25.10.2013 02:10 5,4 C 94 % 1019,9 hPa 0,0 l/m 2,4 km/h (1 Bft) NO 45 4,5 C 5,7 C 3,4 km/h (1 Bft)
25.10.2013 02:15 5,3 C 94 % 1019,9 hPa 0,0 l/m 2,1 km/h (1 Bft) W-SW 247 4,4 C 5,9 C 1,8 km/h (1 Bft)
25.10.2013 02:20 4,5 C 94 % 1019,9 hPa 0,0 l/m 1,8 km/h (1 Bft) NO 45 3,6 C 5,4 C 2,7 km/h (1 Bft)
25.10.2013 02:25 4,5 C 94 % 1019,8 hPa 0,0 l/m 0,5 km/h (0 Bft) N-NO 22 3,6 C 4,8 C 0,0 km/h (0 Bft)
25.10.2013 02:30 4,9 C 94 % 1019,8 hPa 0,0 l/m 0,5 km/h (0 Bft) N-NO 22 4,0 C 4,8 C 0,0 km/h (0 Bft)
25.10.2013 02:35 5,4 C 94 % 1019,8 hPa 0,0 l/m 1,3 km/h (1 Bft) S-SW 202 4,5 C 5,2 C 1,8 km/h (1 Bft)
25.10.2013 02:40 4,6 C 94 % 1019,8 hPa 0,0 l/m 1,3 km/h (1 Bft) S 180 3,7 C 5,2 C 0,0 km/h (0 Bft)
25.10.2013 02:45 4,4 C 94 % 1019,6 hPa 0,0 l/m 0,3 km/h (0 Bft) O-SO 112 3,5 C 4,7 C 0,0 km/h (0 Bft)
25.10.2013 02:50 4,4 C 94 % 1019,6 hPa 0,0 l/m 0,0 km/h (0 Bft) S-SO 157 3,5 C 4,7 C 0,0 km/h (0 Bft)
25.10.2013 02:55 5,0 C 94 % 1019,6 hPa 0,0 l/m 0,5 km/h (0 Bft) NO 45 4,1 C 4,7 C 0,0 km/h (0 Bft)
25.10.2013 03:00 4,6 C 95 % 1019,6 hPa 0,0 l/m 0,5 km/h (0 Bft) NO 45 3,9 C 4,8 C 0,0 km/h (0 Bft)
25.10.2013 03:05 4,3 C 95 % 1019,6 hPa 0,0 l/m 0,5 km/h (0 Bft) NO 45 3,6 C 4,7 C 0,0 km/h (0 Bft)
25.10.2013 03:10 4,1 C 94 % 1019,6 hPa 0,0 l/m 0,2 km/h (0 Bft) O 90 3,2 C 4,6 C 0,0 km/h (0 Bft)
25.10.2013 03:15 4,0 C 94 % 1019,6 hPa 0,0 l/m 0,2 km/h (0 Bft) O 90 3,1 C 4,6 C 0,0 km/h (0 Bft)
25.10.2013 03:20 3,8 C 95 % 1019,6 hPa 0,0 l/m 0,2 km/h (0 Bft) O 90 3,1 C 4,6 C 0,0 km/h (0 Bft)
25.10.2013 03:25 4,5 C 95 % 1019,4 hPa 0,0 l/m 0,2 km/h (0 Bft) O 90 3,8 C 4,6 C 0,0 km/h (0 Bft)
25.10.2013 03:30 4,6 C 95 % 1019,4 hPa 0,0 l/m 0,0 km/h (0 Bft) O 90 3,9 C 4,6 C 0,0 km/h (0 Bft)
25.10.2013 03:35 4,2 C 95 % 1019,4 hPa 0,0 l/m 0,0 km/h (0 Bft) O 90 3,5 C 4,6 C 0,0 km/h (0 Bft)
25.10.2013 03:40 3,9 C 95 % 1019,4 hPa 0,0 l/m 0,0 km/h (0 Bft) O 90 3,2 C 4,6 C 0,0 km/h (0 Bft)
25.10.2013 03:45 3,7 C 95 % 1019,2 hPa 0,0 l/m 0,0 km/h (0 Bft) O 90 3,0 C 4,6 C 0,0 km/h (0 Bft)
25.10.2013 03:50 3,7 C 95 % 1019,2 hPa 0,0 l/m 0,0 km/h (0 Bft) O 90 3,0 C 4,6 C 0,0 km/h (0 Bft)
25.10.2013 03:55 4,7 C 95 % 1019,2 hPa 0,0 l/m 0,0 km/h (0 Bft) O 90 4,0 C 4,6 C 0,0 km/h (0 Bft)
25.10.2013 04:00 4,6 C 95 % 1019,2 hPa 0,0 l/m 0,0 km/h (0 Bft) O 90 3,9 C 4,6 C 0,0 km/h (0 Bft)
25.10.2013 04:05 4,5 C 95 % 1019,2 hPa 0,0 l/m 0,0 km/h (0 Bft) O 90 3,8 C 4,6 C 0,0 km/h (0 Bft)
25.10.2013 04:10 4,8 C 95 % 1019,2 hPa 0,0 l/m 0,0 km/h (0 Bft) O 90 4,1 C 4,6 C 0,0 km/h (0 Bft)
25.10.2013 04:14 4,3 C 95 % 1019,2 hPa 0,0 l/m 0,0 km/h (0 Bft) O 90 3,6 C 4,6 C 0,0 km/h (0 Bft)
25.10.2013 04:15 4,3 C 95 % 1019,2 hPa 0,0 l/m 0,0 km/h (0 Bft) O 90 3,6 C 4,6 C 0,0 km/h (0 Bft)
25.10.2013 04:20 3,9 C 95 % 1019,2 hPa 0,0 l/m 0,0 km/h (0 Bft) O 90 3,2 C 4,6 C 0,0 km/h (0 Bft)
25.10.2013 04:25 3,5 C 95 % 1018,9 hPa 0,0 l/m 0,0 km/h (0 Bft) O 90 2,8 C 4,6 C 0,0 km/h (0 Bft)
25.10.2013 04:30 4,0 C 95 % 1018,9 hPa 0,0 l/m 0,0 km/h (0 Bft) O 90 3,3 C 4,6 C 0,0 km/h (0 Bft)
25.10.2013 04:35 4,5 C 95 % 1018,9 hPa 0,0 l/m 0,0 km/h (0 Bft) O 90 3,8 C 4,6 C 0,0 km/h (0 Bft)
25.10.2013 04:40 4,7 C 95 % 1018,9 hPa 0,0 l/m 0,0 km/h (0 Bft) O 90 4,0 C 4,6 C 0,0 km/h (0 Bft)
25.10.2013 04:45 4,1 C 95 % 1019,1 hPa 0,0 l/m 0,0 km/h (0 Bft) O 90 3,4 C 4,6 C 0,0 km/h (0 Bft)
25.10.2013 04:50 4,0 C 95 % 1019,1 hPa 0,0 l/m 0,0 km/h (0 Bft) O 90 3,3 C 4,6 C 0,0 km/h (0 Bft)
25.10.2013 04:55 4,1 C 95 % 1019,1 hPa 0,0 l/m 0,0 km/h (0 Bft) O 90 3,4 C 4,6 C 0,0 km/h (0 Bft)
25.10.2013 05:00 3,8 C 96 % 1019,1 hPa 0,0 l/m 0,0 km/h (0 Bft) O 90 3,2 C 4,6 C 0,0 km/h (0 Bft)
25.10.2013 05:05 3,6 C 96 % 1019,2 hPa 0,0 l/m 0,0 km/h (0 Bft) O 90 3,0 C 4,6 C 0,0 km/h (0 Bft)
25.10.2013 05:10 3,4 C 96 % 1019,2 hPa 0,0 l/m 0,0 km/h (0 Bft) O 90 2,8 C 4,6 C 0,0 km/h (0 Bft)
25.10.2013 05:15 4,0 C 95 % 1019,2 hPa 0,0 l/m 0,0 km/h (0 Bft) O 90 3,3 C 4,6 C 0,0 km/h (0 Bft)
25.10.2013 05:20 4,1 C 96 % 1019,2 hPa 0,0 l/m 0,0 km/h (0 Bft) O 90 3,5 C 4,6 C 0,0 km/h (0 Bft)
25.10.2013 05:25 4,4 C 96 % 1019,2 hPa 0,0 l/m 0,0 km/h (0 Bft) O 90 3,8 C 4,6 C 0,0 km/h (0 Bft)
25.10.2013 05:30 4,0 C 96 % 1019,2 hPa 0,0 l/m 0,0 km/h (0 Bft) O 90 3,4 C 4,6 C 0,0 km/h (0 Bft)
25.10.2013 05:35 3,7 C 96 % 1019,2 hPa 0,0 l/m 0,0 km/h (0 Bft) O 90 3,1 C 4,6 C 0,0 km/h (0 Bft)
25.10.2013 05:40 3,6 C 96 % 1019,2 hPa 0,0 l/m 0,0 km/h (0 Bft) O 90 3,0 C 4,6 C 0,0 km/h (0 Bft)
25.10.2013 05:45 4,1 C 96 % 1019,2 hPa 0,0 l/m 0,0 km/h (0 Bft) O 90 3,5 C 4,6 C 0,0 km/h (0 Bft)
25.10.2013 05:50 4,3 C 96 % 1019,2 hPa 0,0 l/m 0,0 km/h (0 Bft) O 90 3,7 C 4,6 C 0,0 km/h (0 Bft)
25.10.2013 05:55 4,0 C 96 % 1019,2 hPa 0,0 l/m 0,0 km/h (0 Bft) O 90 3,4 C 4,6 C 0,0 km/h (0 Bft)
25.10.2013 06:00 3,6 C 96 % 1019,2 hPa 0,0 l/m 0,0 km/h (0 Bft) O 90 3,0 C 4,6 C 0,0 km/h (0 Bft)
25.10.2013 06:05 3,8 C 96 % 1019,3 hPa 0,0 l/m 0,0 km/h (0 Bft) O 90 3,2 C 4,6 C 0,0 km/h (0 Bft)
25.10.2013 06:10 4,2 C 96 % 1019,3 hPa 0,0 l/m 0,0 km/h (0 Bft) O 90 3,6 C 4,6 C 0,0 km/h (0 Bft)
25.10.2013 06:15 4,4 C 96 % 1019,3 hPa 0,0 l/m 0,0 km/h (0 Bft) O 90 3,8 C 4,6 C 0,0 km/h (0 Bft)
25.10.2013 06:20 4,5 C 96 % 1019,3 hPa 0,0 l/m 0,0 km/h (0 Bft) O 90 3,9 C 4,6 C 0,0 km/h (0 Bft)
25.10.2013 06:25 4,3 C 96 % 1019,4 hPa 0,0 l/m 0,0 km/h (0 Bft) O 90 3,7 C 4,6 C 0,0 km/h (0 Bft)
25.10.2013 06:30 4,0 C 96 % 1019,4 hPa 0,0 l/m 0,0 km/h (0 Bft) O 90 3,4 C 4,6 C 0,0 km/h (0 Bft)
25.10.2013 06:35 3,9 C 96 % 1019,4 hPa 0,0 l/m 0,0 km/h (0 Bft) O 90 3,3 C 4,6 C 0,0 km/h (0 Bft)
25.10.2013 06:40 3,9 C 96 % 1019,4 hPa 0,0 l/m 0,0 km/h (0 Bft) O 90 3,3 C 4,6 C 0,0 km/h (0 Bft)
25.10.2013 06:45 4,3 C 96 % 1019,3 hPa 0,0 l/m 0,0 km/h (0 Bft) O 90 3,7 C 4,6 C 0,0 km/h (0 Bft)
25.10.2013 06:50 4,3 C 96 % 1019,3 hPa 0,0 l/m 0,0 km/h (0 Bft) O 90 3,7 C 4,6 C 0,0 km/h (0 Bft)
25.10.2013 06:55 4,3 C 96 % 1019,3 hPa 0,0 l/m 0,0 km/h (0 Bft) O 90 3,7 C 4,6 C 0,0 km/h (0 Bft)
25.10.2013 07:00 4,3 C 96 % 1019,3 hPa 0,0 l/m 0,0 km/h (0 Bft) O 90 3,7 C 4,6 C 0,0 km/h (0 Bft)
25.10.2013 07:05 4,4 C 96 % 1019,1 hPa 0,0 l/m 0,0 km/h (0 Bft) O 90 3,8 C 4,6 C 0,0 km/h (0 Bft)
25.10.2013 07:10 4,7 C 96 % 1019,1 hPa 0,0 l/m 0,0 km/h (0 Bft) O 90 4,1 C 4,6 C 0,0 km/h (0 Bft)
25.10.2013 07:15 4,8 C 96 % 1019,1 hPa 0,0 l/m 0,0 km/h (0 Bft) O 90 4,2 C 4,6 C 0,0 km/h (0 Bft)
25.10.2013 07:20 4,7 C 96 % 1019,1 hPa 0,0 l/m 0,0 km/h (0 Bft) O 90 4,1 C 4,6 C 0,0 km/h (0 Bft)
25.10.2013 07:25 4,4 C 96 % 1019,4 hPa 0,0 l/m 0,0 km/h (0 Bft) O 90 3,8 C 4,6 C 0,0 km/h (0 Bft)
25.10.2013 07:30 4,4 C 96 % 1019,4 hPa 0,0 l/m 0,0 km/h (0 Bft) O 90 3,8 C 4,6 C 0,0 km/h (0 Bft)
25.10.2013 07:35 4,1 C 96 % 1019,4 hPa 0,0 l/m 0,0 km/h (0 Bft) O 90 3,5 C 4,6 C 0,0 km/h (0 Bft)
25.10.2013 07:40 4,0 C 96 % 1019,4 hPa 0,0 l/m 0,0 km/h (0 Bft) O 90 3,4 C 4,6 C 0,0 km/h (0 Bft)
25.10.2013 07:45 4,1 C 96 % 1019,1 hPa 0,0 l/m 0,0 km/h (0 Bft) O 90 3,5 C 4,6 C 0,0 km/h (0 Bft)
25.10.2013 07:50 3,9 C 96 % 1019,1 hPa 0,0 l/m 0,0 km/h (0 Bft) O 90 3,3 C 4,6 C 0,0 km/h (0 Bft)
25.10.2013 07:55 3,8 C 96 % 1019,1 hPa 0,0 l/m 0,0 km/h (0 Bft) O 90 3,2 C 4,6 C 0,0 km/h (0 Bft)
25.10.2013 08:00 3,8 C 96 % 1019,1 hPa 0,0 l/m 0,0 km/h (0 Bft) O 90 3,2 C 4,6 C 0,0 km/h (0 Bft)
25.10.2013 08:05 4,1 C 96 % 1019,4 hPa 0,0 l/m 0,0 km/h (0 Bft) O 90 3,5 C 4,6 C 0,0 km/h (0 Bft)
25.10.2013 08:10 3,9 C 96 % 1019,4 hPa 0,0 l/m 0,0 km/h (0 Bft) O 90 3,3 C 4,6 C 0,0 km/h (0 Bft)
25.10.2013 08:15 4,1 C 96 % 1019,4 hPa 0,0 l/m 0,0 km/h (0 Bft) O 90 3,5 C 4,6 C 0,0 km/h (0 Bft)
25.10.2013 08:20 4,2 C 96 % 1019,4 hPa 0,0 l/m 0,0 km/h (0 Bft) O 90 3,6 C 4,6 C 0,0 km/h (0 Bft)
25.10.2013 08:25 4,2 C 96 % 1019,6 hPa 0,0 l/m 0,0 km/h (0 Bft) O 90 3,6 C 4,6 C 0,0 km/h (0 Bft)
25.10.2013 08:30 4,2 C 96 % 1019,6 hPa 0,0 l/m 0,0 km/h (0 Bft) O 90 3,6 C 4,6 C 0,0 km/h (0 Bft)
25.10.2013 08:35 4,1 C 96 % 1019,6 hPa 0,0 l/m 0,0 km/h (0 Bft) O 90 3,5 C 4,6 C 0,0 km/h (0 Bft)
25.10.2013 08:40 4,0 C 96 % 1019,6 hPa 0,0 l/m 0,0 km/h (0 Bft) O 90 3,4 C 4,6 C 0,0 km/h (0 Bft)
25.10.2013 08:45 4,4 C 96 % 1019,8 hPa 0,0 l/m 0,0 km/h (0 Bft) N-NO 22 3,8 C 4,7 C 0,0 km/h (0 Bft)
25.10.2013 08:50 4,5 C 96 % 1019,8 hPa 0,0 l/m 0,0 km/h (0 Bft) N-NO 22 3,9 C 4,7 C 0,0 km/h (0 Bft)
25.10.2013 08:55 4,7 C 96 % 1019,8 hPa 0,0 l/m 0,0 km/h (0 Bft) NO 45 4,1 C 5,0 C 0,0 km/h (0 Bft)
25.10.2013 09:00 5,1 C 96 % 1019,8 hPa 0,0 l/m 0,5 km/h (0 Bft) NO 45 4,5 C 5,1 C 0,0 km/h (0 Bft)
25.10.2013 09:05 5,2 C 96 % 1019,8 hPa 0,0 l/m 0,3 km/h (0 Bft) O-NO 67 4,6 C 5,4 C 0,0 km/h (0 Bft)
25.10.2013 09:10 5,3 C 96 % 1019,8 hPa 0,0 l/m 0,0 km/h (0 Bft) N-NO 22 4,7 C 5,6 C 0,0 km/h (0 Bft)
25.10.2013 09:14 5,5 C 96 % 1019,8 hPa 0,0 l/m 0,2 km/h (0 Bft) NO 45 4,9 C 5,9 C 4,7 km/h (1 Bft)
25.10.2013 09:15 5,5 C 96 % 1019,8 hPa 0,0 l/m 0,2 km/h (0 Bft) NO 45 4,9 C 5,9 C 4,7 km/h (1 Bft)
25.10.2013 09:20 5,8 C 96 % 1019,8 hPa 0,0 l/m 0,6 km/h (0 Bft) O 90 5,2 C 6,2 C 1,9 km/h (1 Bft)
25.10.2013 09:25 6,0 C 95 % 1019,9 hPa 0,0 l/m 0,6 km/h (0 Bft) O-NO 67 5,3 C 6,6 C 0,0 km/h (0 Bft)
25.10.2013 09:30 6,0 C 95 % 1019,9 hPa 0,0 l/m 0,2 km/h (0 Bft) O 90 5,3 C 6,9 C 0,0 km/h (0 Bft)
25.10.2013 09:35 6,3 C 96 % 1019,9 hPa 0,0 l/m 0,0 km/h (0 Bft) O 90 5,7 C 7,3 C 0,0 km/h (0 Bft)
25.10.2013 09:40 6,7 C 96 % 1019,9 hPa 0,0 l/m 0,0 km/h (0 Bft) O 90 6,1 C 8,3 C 0,0 km/h (0 Bft)
25.10.2013 09:45 7,1 C 95 % 1019,9 hPa 0,0 l/m 0,3 km/h (0 Bft) NO 45 6,4 C 9,5 C 1,9 km/h (1 Bft)
25.10.2013 09:50 7,4 C 95 % 1019,9 hPa 0,0 l/m 0,8 km/h (0 Bft) NO 45 6,7 C 9,9 C 0,0 km/h (0 Bft)
25.10.2013 09:55 7,7 C 95 % 1019,9 hPa 0,0 l/m 0,8 km/h (0 Bft) O 90 7,0 C 11,6 C 0,0 km/h (0 Bft)
25.10.2013 10:00 7,9 C 95 % 1019,9 hPa 0,0 l/m 0,2 km/h (0 Bft) O 90 7,1 C 13,0 C 0,0 km/h (0 Bft)
25.10.2013 10:05 8,2 C 95 % 1020,0 hPa 0,0 l/m 0,3 km/h (0 Bft) O-NO 67 7,4 C 13,1 C 2,3 km/h (1 Bft)
25.10.2013 10:10 8,3 C 95 % 1020,0 hPa 0,0 l/m 0,6 km/h (0 Bft) O-NO 67 7,5 C 12,6 C 3,1 km/h (1 Bft)
25.10.2013 10:15 8,7 C 95 % 1020,0 hPa 0,0 l/m 1,6 km/h (1 Bft) NO 45 7,9 C 12,4 C 0,0 km/h (0 Bft)
25.10.2013 10:20 8,8 C 95 % 1020,0 hPa 0,0 l/m 1,3 km/h (1 Bft) O 90 8,0 C 12,3 C 0,0 km/h (0 Bft)
25.10.2013 10:25 8,9 C 95 % 1020,2 hPa 0,0 l/m 0,2 km/h (0 Bft) O 90 8,1 C 12,3 C 0,0 km/h (0 Bft)
25.10.2013 10:30 9,2 C 94 % 1020,2 hPa 0,0 l/m 0,0 km/h (0 Bft) O 90 8,3 C 12,5 C 0,0 km/h (0 Bft)
25.10.2013 10:35 10,1 C 94 % 1020,2 hPa 0,0 l/m 1,4 km/h (1 Bft) NO 45 9,2 C 13,8 C 5,5 km/h (1 Bft)
25.10.2013 10:40 10,6 C 94 % 1020,2 hPa 0,0 l/m 1,9 km/h (1 Bft) S-SO 157 9,7 C 15,0 C 4,2 km/h (1 Bft)
25.10.2013 10:45 11,8 C 94 % 1021,0 hPa 0,0 l/m 3,5 km/h (1 Bft) S 180 10,9 C 17,1 C 7,6 km/h (2 Bft)
25.10.2013 10:50 12,5 C 93 % 1021,0 hPa 0,0 l/m 4,8 km/h (1 Bft) S 180 11,4 C 18,3 C 6,9 km/h (2 Bft)
25.10.2013 10:55 13,0 C 90 % 1021,0 hPa 0,0 l/m 4,2 km/h (1 Bft) S-SO 157 11,4 C 18,1 C 3,5 km/h (1 Bft)
25.10.2013 11:00 13,5 C 90 % 1021,0 hPa 0,0 l/m 2,3 km/h (1 Bft) O-SO 112 11,9 C 17,9 C 0,0 km/h (0 Bft)
25.10.2013 11:05 13,8 C 89 % 1020,9 hPa 0,0 l/m 0,8 km/h (0 Bft) S 180 12,0 C 17,6 C 2,3 km/h (1 Bft)
25.10.2013 11:10 13,9 C 88 % 1020,9 hPa 0,0 l/m 1,1 km/h (1 Bft) W 270 11,9 C 17,4 C 0,0 km/h (0 Bft)
25.10.2013 11:15 14,0 C 87 % 1020,9 hPa 0,0 l/m 0,8 km/h (0 Bft) S-SO 157 11,9 C 17,3 C 0,0 km/h (0 Bft)
25.10.2013 11:20 14,2 C 86 % 1020,9 hPa 0,0 l/m 0,8 km/h (0 Bft) S-SO 157 11,9 C 17,5 C 4,0 km/h (1 Bft)
25.10.2013 11:25 14,7 C 84 % 1021,2 hPa 0,0 l/m 1,6 km/h (1 Bft) S 180 12,0 C 18,5 C 4,0 km/h (1 Bft)
25.10.2013 11:30 15,3 C 82 % 1021,2 hPa 0,0 l/m 2,7 km/h (1 Bft) S 180 12,2 C 19,9 C 3,7 km/h (1 Bft)
25.10.2013 11:35 15,0 C 83 % 1021,2 hPa 0,0 l/m 2,7 km/h (1 Bft) S-SO 157 12,1 C 21,4 C 1,8 km/h (1 Bft)
25.10.2013 11:40 14,9 C 84 % 1021,2 hPa 0,0 l/m 1,6 km/h (1 Bft) O 90 12,2 C 21,2 C 1,6 km/h (1 Bft)
25.10.2013 11:45 15,1 C 84 % 1021,7 hPa 0,0 l/m 0,5 km/h (0 Bft) W-SW 247 12,4 C 20,8 C 0,0 km/h (0 Bft)
25.10.2013 11:50 15,1 C 85 % 1021,7 hPa 0,0 l/m 0,2 km/h (0 Bft) O 90 12,6 C 21,3 C 0,0 km/h (0 Bft)
25.10.2013 11:55 15,1 C 85 % 1021,7 hPa 0,0 l/m 0,3 km/h (0 Bft) S 180 12,6 C 21,7 C 0,0 km/h (0 Bft)
25.10.2013 12:00 15,2 C 86 % 1021,7 hPa 0,0 l/m 0,3 km/h (0 Bft) O-SO 112 12,9 C 21,6 C 0,0 km/h (0 Bft)
25.10.2013 12:05 15,6 C 83 % 1021,8 hPa 0,0 l/m 0,2 km/h (0 Bft) NO 45 12,7 C 21,4 C 0,0 km/h (0 Bft)
25.10.2013 12:10 15,6 C 83 % 1021,8 hPa 0,0 l/m 0,2 km/h (0 Bft) NO 45 12,7 C 21,4 C 0,0 km/h (0 Bft)
25.10.2013 12:15 16,6 C 77 % 1021,8 hPa 0,0 l/m 0,2 km/h (0 Bft) O-NO 67 12,5 C 22,7 C 0,0 km/h (0 Bft)
25.10.2013 12:20 17,0 C 78 % 1021,8 hPa 0,0 l/m 0,5 km/h (0 Bft) N-NO 22 13,1 C 22,9 C 0,0 km/h (0 Bft)
25.10.2013 12:25 17,0 C 78 % 1021,9 hPa 0,0 l/m 0,6 km/h (0 Bft) O 90 13,1 C 23,0 C 0,0 km/h (0 Bft)
25.10.2013 12:30 17,0 C 78 % 1021,9 hPa 0,0 l/m 1,0 km/h (0 Bft) S-SO 157 13,1 C 23,2 C 2,3 km/h (1 Bft)
25.10.2013 12:35 16,7 C 77 % 1021,9 hPa 0,0 l/m 1,6 km/h (1 Bft) SO 135 12,6 C 22,5 C 0,0 km/h (0 Bft)
25.10.2013 12:40 16,7 C 76 % 1021,9 hPa 0,0 l/m 1,9 km/h (1 Bft) O-SO 112 12,4 C 22,2 C 0,0 km/h (0 Bft)
25.10.2013 12:45 17,1 C 78 % 1022,1 hPa 0,0 l/m 1,9 km/h (1 Bft) S-SO 157 13,2 C 22,0 C 3,9 km/h (1 Bft)
25.10.2013 12:50 17,2 C 71 % 1022,1 hPa 0,0 l/m 2,6 km/h (1 Bft) O 90 11,9 C 21,7 C 0,0 km/h (0 Bft)
25.10.2013 12:55 17,4 C 59 % 1022,1 hPa 0,0 l/m 3,9 km/h (1 Bft) S 180 9,3 C 21,7 C 8,4 km/h (2 Bft)
25.10.2013 13:00 17,5 C 60 % 1022,1 hPa 0,0 l/m 4,7 km/h (1 Bft) SO 135 9,6 C 21,2 C 4,2 km/h (1 Bft)
25.10.2013 13:05 17,4 C 59 % 1022,0 hPa 0,0 l/m 4,0 km/h (1 Bft) SO 135 9,3 C 21,4 C 7,6 km/h (2 Bft)
25.10.2013 13:10 17,2 C 56 % 1022,0 hPa 0,0 l/m 4,2 km/h (1 Bft) S-SW 202 8,3 C 21,3 C 4,5 km/h (1 Bft)
25.10.2013 13:15 17,2 C 58 % 1022,0 hPa 0,0 l/m 3,9 km/h (1 Bft) SO 135 8,9 C 21,4 C 1,9 km/h (1 Bft)
25.10.2013 13:20 17,2 C 55 % 1022,0 hPa 0,0 l/m 2,1 km/h (1 Bft) SO 135 8,1 C 21,3 C 0,0 km/h (0 Bft)
25.10.2013 13:25 17,2 C 54 % 1021,7 hPa 0,0 l/m 1,4 km/h (1 Bft) SO 135 7,8 C 21,8 C 2,3 km/h (1 Bft)
25.10.2013 13:30 17,3 C 52 % 1021,7 hPa 0,0 l/m 2,3 km/h (1 Bft) O-SO 112 7,3 C 22,0 C 3,4 km/h (1 Bft)
25.10.2013 13:35 17,3 C 53 % 1021,7 hPa 0,0 l/m 2,1 km/h (1 Bft) O-SO 112 7,6 C 22,1 C 2,7 km/h (1 Bft)
25.10.2013 13:40 17,5 C 53 % 1021,7 hPa 0,0 l/m 2,3 km/h (1 Bft) O-SO 112 7,8 C 22,4 C 2,7 km/h (1 Bft)
25.10.2013 13:45 18,0 C 50 % 1021,8 hPa 0,0 l/m 1,8 km/h (1 Bft) NO 45 7,4 C 22,9 C 2,6 km/h (1 Bft)
25.10.2013 13:50 18,1 C 50 % 1021,8 hPa 0,0 l/m 1,4 km/h (1 Bft) O-NO 67 7,5 C 23,4 C 1,9 km/h (1 Bft)
25.10.2013 13:55 18,0 C 49 % 1021,8 hPa 0,0 l/m 1,0 km/h (0 Bft) O-SO 112 7,1 C 23,7 C 1,8 km/h (1 Bft)
25.10.2013 14:00 18,0 C 48 % 1021,8 hPa 0,0 l/m 1,0 km/h (0 Bft) O-SO 112 6,8 C 24,0 C 2,1 km/h (1 Bft)
25.10.2013 14:05 17,5 C 49 % 1021,8 hPa 0,0 l/m 1,0 km/h (0 Bft) O 90 6,7 C 24,2 C 0,0 km/h (0 Bft)
25.10.2013 14:09 17,2 C 50 % 1021,8 hPa 0,0 l/m 0,8 km/h (0 Bft) SO 135 6,7 C 24,6 C 2,6 km/h (1 Bft)
25.10.2013 14:10 17,2 C 50 % 1021,8 hPa 0,0 l/m 0,8 km/h (0 Bft) SO 135 6,7 C 24,6 C 2,6 km/h (1 Bft)
25.10.2013 14:15 17,4 C 50 % 1021,8 hPa 0,0 l/m 0,5 km/h (0 Bft) O-NO 67 6,9 C 25,4 C 2,3 km/h (1 Bft)
25.10.2013 14:20 17,7 C 48 % 1021,8 hPa 0,0 l/m 1,0 km/h (0 Bft) NO 45 6,6 C 25,4 C 2,3 km/h (1 Bft)
25.10.2013 14:25 17,8 C 49 % 1021,4 hPa 0,0 l/m 1,3 km/h (1 Bft) O-NO 67 6,9 C 24,8 C 3,2 km/h (1 Bft)
25.10.2013 14:30 17,9 C 50 % 1021,4 hPa 0,0 l/m 1,0 km/h (0 Bft) O 90 7,3 C 24,0 C 1,6 km/h (1 Bft)
25.10.2013 14:35 18,1 C 49 % 1021,4 hPa 0,0 l/m 0,3 km/h (0 Bft) O 90 7,2 C 23,1 C 0,0 km/h (0 Bft)
25.10.2013 14:40 18,2 C 49 % 1021,4 hPa 0,0 l/m 0,6 km/h (0 Bft) O 90 7,3 C 22,6 C 2,1 km/h (1 Bft)
25.10.2013 14:45 18,0 C 52 % 1021,6 hPa 0,0 l/m 1,1 km/h (1 Bft) O 90 8,0 C 22,0 C 1,6 km/h (1 Bft)
25.10.2013 14:50 18,2 C 48 % 1021,6 hPa 0,0 l/m 0,8 km/h (0 Bft) O-NO 67 7,0 C 22,1 C 0,0 km/h (0 Bft)
25.10.2013 14:55 18,3 C 50 % 1021,6 hPa 0,0 l/m 0,3 km/h (0 Bft) O-NO 67 7,7 C 22,5 C 0,0 km/h (0 Bft)
25.10.2013 15:00 18,3 C 50 % 1021,6 hPa 0,0 l/m 0,2 km/h (0 Bft) O 90 7,7 C 22,5 C 0,0 km/h (0 Bft)
25.10.2013 15:05 18,1 C 51 % 1021,2 hPa 0,0 l/m 0,3 km/h (0 Bft) O 90 7,8 C 22,5 C 2,6 km/h (1 Bft)
25.10.2013 15:10 18,1 C 50 % 1021,2 hPa 0,0 l/m 1,3 km/h (1 Bft) O 90 7,5 C 22,0 C 2,1 km/h (1 Bft)
25.10.2013 15:15 18,0 C 52 % 1021,2 hPa 0,0 l/m 1,3 km/h (1 Bft) NO 45 8,0 C 21,5 C 0,0 km/h (0 Bft)
25.10.2013 15:20 18,0 C 53 % 1021,2 hPa 0,0 l/m 0,8 km/h (0 Bft) O-NO 67 8,3 C 21,3 C 0,0 km/h (0 Bft)
25.10.2013 15:25 17,9 C 52 % 1020,9 hPa 0,0 l/m 0,6 km/h (0 Bft) NO 45 7,9 C 21,1 C 0,0 km/h (0 Bft)
25.10.2013 15:30 17,8 C 53 % 1020,9 hPa 0,0 l/m 0,8 km/h (0 Bft) N 360 8,1 C 21,1 C 4,3 km/h (1 Bft)
25.10.2013 15:35 18,0 C 54 % 1020,9 hPa 0,0 l/m 1,0 km/h (0 Bft) NO 45 8,6 C 21,0 C 2,3 km/h (1 Bft)
25.10.2013 15:40 17,9 C 55 % 1020,9 hPa 0,0 l/m 0,8 km/h (0 Bft) NO 45 8,7 C 20,9 C 0,0 km/h (0 Bft)
25.10.2013 15:45 17,9 C 56 % 1021,0 hPa 0,0 l/m 2,4 km/h (1 Bft) W 270 9,0 C 20,7 C 4,8 km/h (1 Bft)
25.10.2013 15:50 17,8 C 57 % 1021,0 hPa 0,0 l/m 3,5 km/h (1 Bft) NO 45 9,2 C 20,5 C 2,4 km/h (1 Bft)
25.10.2013 15:55 17,7 C 56 % 1021,0 hPa 0,0 l/m 4,0 km/h (1 Bft) N-NW 337 8,8 C 20,1 C 5,0 km/h (1 Bft)
25.10.2013 16:00 17,6 C 56 % 1021,0 hPa 0,0 l/m 3,5 km/h (1 Bft) W-NW 292 8,7 C 19,9 C 1,8 km/h (1 Bft)
25.10.2013 16:05 17,2 C 57 % 1020,9 hPa 0,0 l/m 2,4 km/h (1 Bft) NO 45 8,6 C 19,6 C 0,0 km/h (0 Bft)
25.10.2013 16:10 17,0 C 58 % 1020,9 hPa 0,0 l/m 1,1 km/h (1 Bft) NO 45 8,7 C 19,3 C 2,1 km/h (1 Bft)
25.10.2013 16:15 16,7 C 58 % 1020,9 hPa 0,0 l/m 0,8 km/h (0 Bft) NO 45 8,4 C 18,9 C 1,6 km/h (1 Bft)
25.10.2013 16:20 16,7 C 58 % 1020,9 hPa 0,0 l/m 1,1 km/h (1 Bft) N-NW 337 8,4 C 18,8 C 3,4 km/h (1 Bft)
25.10.2013 16:25 16,7 C 57 % 1020,8 hPa 0,0 l/m 1,3 km/h (1 Bft) NO 45 8,1 C 18,6 C 2,6 km/h (1 Bft)
25.10.2013 16:30 16,5 C 58 % 1020,8 hPa 0,0 l/m 1,0 km/h (0 Bft) NO 45 8,2 C 18,6 C 2,4 km/h (1 Bft)
25.10.2013 16:35 16,4 C 59 % 1020,8 hPa 0,0 l/m 1,3 km/h (1 Bft) NO 45 8,4 C 18,4 C 2,3 km/h (1 Bft)
25.10.2013 16:40 16,3 C 59 % 1020,8 hPa 0,0 l/m 1,6 km/h (1 Bft) NO 45 8,3 C 18,0 C 1,8 km/h (1 Bft)
25.10.2013 16:45 16,1 C 60 % 1020,8 hPa 0,0 l/m 1,6 km/h (1 Bft) O-NO 67 8,3 C 17,6 C 1,9 km/h (1 Bft)
25.10.2013 16:50 15,9 C 62 % 1020,8 hPa 0,0 l/m 1,8 km/h (1 Bft) O-NO 67 8,6 C 17,1 C 2,4 km/h (1 Bft)
25.10.2013 16:55 15,6 C 63 % 1020,8 hPa 0,0 l/m 1,6 km/h (1 Bft) NO 45 8,6 C 16,7 C 2,7 km/h (1 Bft)
25.10.2013 17:00 15,4 C 64 % 1020,8 hPa 0,0 l/m 1,6 km/h (1 Bft) O-NO 67 8,6 C 16,4 C 2,4 km/h (1 Bft)
25.10.2013 17:05 15,1 C 64 % 1020,7 hPa 0,0 l/m 1,1 km/h (1 Bft) NO 45 8,3 C 16,2 C 0,0 km/h (0 Bft)
25.10.2013 17:10 15,1 C 64 % 1020,7 hPa 0,0 l/m 1,1 km/h (1 Bft) O-NO 67 8,3 C 16,0 C 3,4 km/h (1 Bft)
25.10.2013 17:15 15,0 C 63 % 1020,7 hPa 0,0 l/m 2,1 km/h (1 Bft) NO 45 8,0 C 15,8 C 4,2 km/h (1 Bft)
25.10.2013 17:20 14,7 C 62 % 1020,7 hPa 0,0 l/m 3,1 km/h (1 Bft) NO 45 7,5 C 15,7 C 2,7 km/h (1 Bft)
25.10.2013 17:25 14,5 C 62 % 1020,6 hPa 0,0 l/m 2,7 km/h (1 Bft) O-NO 67 7,3 C 15,6 C 2,6 km/h (1 Bft)
25.10.2013 17:30 14,5 C 62 % 1020,6 hPa 0,0 l/m 2,7 km/h (1 Bft) O-NO 67 7,3 C 15,3 C 4,2 km/h (1 Bft)
25.10.2013 17:35 14,2 C 62 % 1020,6 hPa 0,0 l/m 3,1 km/h (1 Bft) O-NO 67 7,0 C 15,0 C 3,5 km/h (1 Bft)
25.10.2013 17:40 14,1 C 62 % 1020,6 hPa 0,0 l/m 3,1 km/h (1 Bft) O-NO 67 6,9 C 14,8 C 3,2 km/h (1 Bft)
25.10.2013 17:45 13,9 C 61 % 1020,6 hPa 0,0 l/m 3,1 km/h (1 Bft) O-NO 67 6,5 C 14,8 C 3,2 km/h (1 Bft)
25.10.2013 17:50 13,7 C 61 % 1020,6 hPa 0,0 l/m 3,1 km/h (1 Bft) O-NO 67 6,3 C 14,8 C 3,2 km/h (1 Bft)
25.10.2013 17:55 13,5 C 60 % 1020,6 hPa 0,0 l/m 3,7 km/h (1 Bft) O-NO 67 5,9 C 14,1 C 3,1 km/h (1 Bft)
25.10.2013 18:00 13,4 C 60 % 1020,6 hPa 0,0 l/m 3,7 km/h (1 Bft) O-NO 67 5,8 C 14,1 C 3,1 km/h (1 Bft)
25.10.2013 18:05 12,9 C 62 % 1020,4 hPa 0,0 l/m 3,1 km/h (1 Bft) O 90 5,8 C 13,4 C 1,6 km/h (1 Bft)
25.10.2013 18:10 12,0 C 63 % 1020,4 hPa 0,0 l/m 3,1 km/h (1 Bft) O 90 5,2 C 13,4 C 1,6 km/h (1 Bft)
25.10.2013 18:15 11,8 C 66 % 1020,4 hPa 0,0 l/m 1,0 km/h (0 Bft) O 90 5,7 C 12,7 C 0,0 km/h (0 Bft)
25.10.2013 18:20 11,9 C 66 % 1020,4 hPa 0,0 l/m 1,0 km/h (0 Bft) O 90 5,8 C 12,7 C 0,0 km/h (0 Bft)
25.10.2013 18:25 12,2 C 65 % 1020,4 hPa 0,0 l/m 2,6 km/h (1 Bft) O-NO 67 5,8 C 11,9 C 2,4 km/h (1 Bft)
25.10.2013 18:30 11,4 C 66 % 1020,4 hPa 0,0 l/m 1,9 km/h (1 Bft) NO 45 5,3 C 11,7 C 0,0 km/h (0 Bft)
25.10.2013 18:35 11,6 C 68 % 1020,4 hPa 0,0 l/m 0,6 km/h (0 Bft) O 90 5,9 C 11,5 C 2,7 km/h (1 Bft)
25.10.2013 18:40 11,6 C 69 % 1020,4 hPa 0,0 l/m 0,3 km/h (0 Bft) O 90 6,1 C 11,2 C 0,0 km/h (0 Bft)
25.10.2013 18:45 10,8 C 69 % 1020,6 hPa 0,0 l/m 0,0 km/h (0 Bft) O 90 5,3 C 10,9 C 0,0 km/h (0 Bft)
25.10.2013 18:50 10,5 C 70 % 1020,6 hPa 0,0 l/m 0,0 km/h (0 Bft) O 90 5,3 C 10,7 C 0,0 km/h (0 Bft)
25.10.2013 18:55 9,9 C 73 % 1020,6 hPa 0,0 l/m 0,0 km/h (0 Bft) NO 45 5,3 C 10,3 C 0,0 km/h (0 Bft)
25.10.2013 19:00 9,9 C 73 % 1020,6 hPa 0,0 l/m 0,0 km/h (0 Bft) NO 45 5,3 C 10,1 C 0,0 km/h (0 Bft)
25.10.2013 19:05 9,9 C 75 % 1020,7 hPa 0,0 l/m 0,0 km/h (0 Bft) O-NO 67 5,7 C 9,9 C 0,0 km/h (0 Bft)
25.10.2013 19:09 9,9 C 76 % 1020,7 hPa 0,0 l/m 0,0 km/h (0 Bft) O 90 5,9 C 9,9 C 0,0 km/h (0 Bft)
25.10.2013 19:10 9,9 C 76 % 1020,7 hPa 0,0 l/m 0,0 km/h (0 Bft) O 90 5,9 C 9,9 C 0,0 km/h (0 Bft)
25.10.2013 19:15 9,5 C 76 % 1020,7 hPa 0,0 l/m 0,0 km/h (0 Bft) O 90 5,5 C 10,0 C 0,0 km/h (0 Bft)
25.10.2013 19:20 9,2 C 76 % 1020,7 hPa 0,0 l/m 0,0 km/h (0 Bft) O 90 5,2 C 9,8 C 0,0 km/h (0 Bft)
25.10.2013 19:25 9,2 C 77 % 1020,6 hPa 0,0 l/m 0,0 km/h (0 Bft) O 90 5,4 C 9,5 C 0,0 km/h (0 Bft)
25.10.2013 19:30 9,9 C 78 % 1020,6 hPa 0,0 l/m 0,0 km/h (0 Bft) NO 45 6,2 C 9,6 C 0,0 km/h (0 Bft)
25.10.2013 19:35 10,0 C 79 % 1020,6 hPa 0,0 l/m 0,2 km/h (0 Bft) NO 45 6,5 C 9,9 C 0,0 km/h (0 Bft)
25.10.2013 19:40 9,9 C 79 % 1020,6 hPa 0,0 l/m 0,2 km/h (0 Bft) O 90 6,4 C 10,1 C 0,0 km/h (0 Bft)
25.10.2013 19:45 9,5 C 79 % 1020,3 hPa 0,0 l/m 0,0 km/h (0 Bft) O-SO 112 6,0 C 10,2 C 0,0 km/h (0 Bft)
25.10.2013 19:50 9,1 C 79 % 1020,3 hPa 0,0 l/m 0,0 km/h (0 Bft) SO 135 5,7 C 10,1 C 0,0 km/h (0 Bft)
25.10.2013 19:55 8,6 C 79 % 1020,3 hPa 0,0 l/m 0,0 km/h (0 Bft) O-SO 112 5,2 C 9,8 C 0,0 km/h (0 Bft)
25.10.2013 20:00 8,9 C 80 % 1020,3 hPa 0,0 l/m 0,0 km/h (0 Bft) O 90 5,6 C 9,6 C 0,0 km/h (0 Bft)
25.10.2013 20:05 10,1 C 80 % 1020,3 hPa 0,0 l/m 0,2 km/h (0 Bft) O 90 6,8 C 9,9 C 1,6 km/h (1 Bft)
25.10.2013 20:10 10,5 C 80 % 1020,3 hPa 0,0 l/m 0,2 km/h (0 Bft) O-SO 112 7,2 C 10,3 C 0,0 km/h (0 Bft)
25.10.2013 20:15 9,6 C 79 % 1020,3 hPa 0,0 l/m 0,2 km/h (0 Bft) S-SO 157 6,1 C 10,3 C 0,0 km/h (0 Bft)
25.10.2013 20:20 8,9 C 79 % 1020,3 hPa 0,0 l/m 0,0 km/h (0 Bft) SO 135 5,5 C 10,0 C 0,0 km/h (0 Bft)
25.10.2013 20:25 8,6 C 79 % 1020,1 hPa 0,0 l/m 0,0 km/h (0 Bft) W-SW 247 5,2 C 9,6 C 3,9 km/h (1 Bft)
25.10.2013 20:30 9,3 C 80 % 1020,1 hPa 0,0 l/m 0,3 km/h (0 Bft) O 90 6,0 C 9,9 C 0,0 km/h (0 Bft)
25.10.2013 20:35 9,3 C 80 % 1020,1 hPa 0,0 l/m 0,5 km/h (0 Bft) S-SW 202 6,0 C 10,1 C 2,1 km/h (1 Bft)
25.10.2013 20:40 8,7 C 80 % 1020,1 hPa 0,0 l/m 0,2 km/h (0 Bft) S 180 5,4 C 9,7 C 0,0 km/h (0 Bft)
25.10.2013 20:45 8,6 C 81 % 1020,0 hPa 0,0 l/m 0,2 km/h (0 Bft) S-SO 157 5,5 C 9,2 C 0,0 km/h (0 Bft)
25.10.2013 20:50 8,6 C 81 % 1020,0 hPa 0,0 l/m 0,0 km/h (0 Bft) S-SO 157 5,5 C 9,0 C 0,0 km/h (0 Bft)
25.10.2013 20:55 8,4 C 82 % 1020,0 hPa 0,0 l/m 0,0 km/h (0 Bft) S 180 5,5 C 8,9 C 0,0 km/h (0 Bft)
25.10.2013 21:00 8,1 C 83 % 1020,0 hPa 0,0 l/m 0,0 km/h (0 Bft) SW 225 5,4 C 8,7 C 0,0 km/h (0 Bft)
25.10.2013 21:05 8,0 C 83 % 1019,7 hPa 0,0 l/m 0,2 km/h (0 Bft) S-SO 157 5,3 C 8,4 C 0,0 km/h (0 Bft)
25.10.2013 21:10 7,8 C 83 % 1019,7 hPa 0,0 l/m 0,2 km/h (0 Bft) S-SO 157 5,1 C 8,3 C 0,0 km/h (0 Bft)
25.10.2013 21:15 7,9 C 84 % 1019,7 hPa 0,0 l/m 0,0 km/h (0 Bft) W 270 5,4 C 8,2 C 0,0 km/h (0 Bft)
25.10.2013 21:20 7,7 C 84 % 1019,7 hPa 0,0 l/m 0,2 km/h (0 Bft) W 270 5,2 C 8,1 C 0,0 km/h (0 Bft)
25.10.2013 21:25 8,0 C 85 % 1019,8 hPa 0,0 l/m 0,0 km/h (0 Bft) SO 135 5,6 C 8,1 C 0,0 km/h (0 Bft)
25.10.2013 21:30 8,1 C 85 % 1019,8 hPa 0,0 l/m 0,0 km/h (0 Bft) SO 135 5,7 C 8,1 C 0,0 km/h (0 Bft)
25.10.2013 21:35 7,8 C 85 % 1019,8 hPa 0,0 l/m 0,0 km/h (0 Bft) SO 135 5,4 C 8,0 C 0,0 km/h (0 Bft)
25.10.2013 21:40 7,6 C 85 % 1019,8 hPa 0,0 l/m 0,0 km/h (0 Bft) SO 135 5,2 C 8,0 C 0,0 km/h (0 Bft)
25.10.2013 21:45 7,3 C 85 % 1019,6 hPa 0,0 l/m 0,0 km/h (0 Bft) SO 135 4,9 C 8,0 C 0,0 km/h (0 Bft)
25.10.2013 21:50 7,1 C 86 % 1019,6 hPa 0,0 l/m 0,0 km/h (0 Bft) W-NW 292 4,9 C 7,6 C 0,0 km/h (0 Bft)
25.10.2013 21:55 7,2 C 86 % 1019,6 hPa 0,0 l/m 0,2 km/h (0 Bft) W-NW 292 5,0 C 7,3 C 2,1 km/h (1 Bft)
25.10.2013 22:00 7,4 C 87 % 1019,6 hPa 0,0 l/m 0,2 km/h (0 Bft) W-NW 292 5,4 C 7,4 C 0,0 km/h (0 Bft)
25.10.2013 22:05 7,2 C 87 % 1019,6 hPa 0,0 l/m 0,2 km/h (0 Bft) W-NW 292 5,2 C 7,4 C 0,0 km/h (0 Bft)
25.10.2013 22:10 7,3 C 87 % 1019,6 hPa 0,0 l/m 0,0 km/h (0 Bft) W 270 5,3 C 7,4 C 0,0 km/h (0 Bft)
25.10.2013 22:15 7,2 C 88 % 1019,6 hPa 0,0 l/m 0,0 km/h (0 Bft) W-SW 247 5,3 C 7,5 C 0,0 km/h (0 Bft)
25.10.2013 22:20 6,9 C 88 % 1019,6 hPa 0,0 l/m 0,0 km/h (0 Bft) NW 315 5,1 C 7,4 C 0,0 km/h (0 Bft)
25.10.2013 22:25 7,4 C 88 % 1019,7 hPa 0,0 l/m 0,3 km/h (0 Bft) O-SO 112 5,5 C 7,5 C 0,0 km/h (0 Bft)
25.10.2013 22:30 7,6 C 88 % 1019,7 hPa 0,0 l/m 0,3 km/h (0 Bft) O 90 5,7 C 7,5 C 0,0 km/h (0 Bft)
25.10.2013 22:35 7,5 C 88 % 1019,7 hPa 0,0 l/m 0,0 km/h (0 Bft) N-NO 22 5,6 C 7,6 C 0,0 km/h (0 Bft)
25.10.2013 22:40 7,2 C 88 % 1019,7 hPa 0,0 l/m 0,0 km/h (0 Bft) W-NW 292 5,3 C 7,6 C 0,0 km/h (0 Bft)
25.10.2013 22:45 7,4 C 88 % 1019,7 hPa 0,0 l/m 0,3 km/h (0 Bft) N-NO 22 5,5 C 7,5 C 1,6 km/h (1 Bft)
25.10.2013 22:50 9,0 C 88 % 1019,7 hPa 0,0 l/m 1,1 km/h (1 Bft) NO 45 7,1 C 7,9 C 2,1 km/h (1 Bft)
25.10.2013 22:55 8,6 C 86 % 1019,7 hPa 0,0 l/m 1,3 km/h (1 Bft) W-SW 247 6,4 C 8,5 C 2,4 km/h (1 Bft)
25.10.2013 23:00 7,8 C 86 % 1019,7 hPa 0,0 l/m 0,8 km/h (0 Bft) N-NO 22 5,6 C 8,3 C 1,9 km/h (1 Bft)
25.10.2013 23:05 7,7 C 86 % 1019,5 hPa 0,0 l/m 0,6 km/h (0 Bft) N-NO 22 5,5 C 8,0 C 0,0 km/h (0 Bft)
25.10.2013 23:10 7,4 C 86 % 1019,5 hPa 0,0 l/m 0,3 km/h (0 Bft) N-NO 22 5,2 C 8,0 C 0,0 km/h (0 Bft)
25.10.2013 23:15 7,6 C 86 % 1019,5 hPa 0,0 l/m 0,2 km/h (0 Bft) N-NO 22 5,4 C 7,8 C 1,6 km/h (1 Bft)
25.10.2013 23:20 7,6 C 87 % 1019,5 hPa 0,0 l/m 0,2 km/h (0 Bft) N-NO 22 5,6 C 7,8 C 0,0 km/h (0 Bft)
25.10.2013 23:25 7,5 C 86 % 1019,4 hPa 0,0 l/m 0,0 km/h (0 Bft) N-NO 22 5,3 C 7,7 C 0,0 km/h (0 Bft)
25.10.2013 23:30 7,3 C 86 % 1019,4 hPa 0,0 l/m 0,0 km/h (0 Bft) N-NO 22 5,1 C 7,6 C 0,0 km/h (0 Bft)
25.10.2013 23:35 7,1 C 86 % 1019,4 hPa 0,0 l/m 0,0 km/h (0 Bft) NO 45 4,9 C 7,6 C 0,0 km/h (0 Bft)
25.10.2013 23:40 7,0 C 86 % 1019,4 hPa 0,0 l/m 0,0 km/h (0 Bft) N-NO 22 4,8 C 7,5 C 0,0 km/h (0 Bft)
25.10.2013 23:45 6,9 C 87 % 1019,1 hPa 0,0 l/m 0,0 km/h (0 Bft) SO 135 4,9 C 7,3 C 0,0 km/h (0 Bft)
25.10.2013 23:50 6,9 C 87 % 1019,1 hPa 0,0 l/m 0,0 km/h (0 Bft) SO 135 4,9 C 7,4 C 0,0 km/h (0 Bft)
25.10.2013 23:55 6,8 C 87 % 1019,1 hPa 0,0 l/m 0,0 km/h (0 Bft) N-NO 22 4,8 C 7,4 C 0,0 km/h (0 Bft)
_ Min-Zeit 05:10 14:50 04:40 - 23:55 - - 04:25 08:40 23:55
Minimum _ 3,4 C 48 % 1018,9 hPa - 0,0 km/h (0 Bft) - - 2,8 C 4,6 C 0,0 km/h (0 Bft)
_ Max-Zeit 15:00 09:40 13:00 23:55 10:50 - - 12:45 14:20 12:55
Maximum _ 18,3 C 96 % 1022,1 hPa 0,0 l/m 4,8 km/h
S (1 Bft)
- - 13,2 C 25,4 C 8,4 km/h
S (2 Bft)
Durchschnitt _ 9,4 C 82 % 1020,2 hPa #0,0 l/m 0,7 km/h (0 Bft) NO - 6,1 C 11,0 C 1,0 km/h (0 Bft)